Météo par heure à Juszczyn

Ce jour, 20 Juin, Dimanche

Heure Température Précipitation Vent Pression Humidité
00:00 +18°C° 0 mm 1 m/s 720 mmHg 89%
01:00 +18°C° 0 mm 1 m/s 720 mmHg 89%
02:00 +18°C° 0 mm 1 m/s 720 mmHg 89%
03:00 +16°C° 0 mm 1 m/s 720 mmHg 90%
04:00 +16°C° 0 mm 1 m/s 720 mmHg 90%
05:00 +19°C° 0 mm 1 m/s 720 mmHg 83%
06:00 +21°C° 0 mm 1 m/s 720 mmHg 76%
07:00 +23°C° 0 mm 1 m/s 720 mmHg 69%
08:00 +24°C° 0 mm 1 m/s 720 mmHg 63%
09:00 +26°C° 0 mm 1 m/s 720 mmHg 57%
10:00 +28°C° 0 mm 1 m/s 720 mmHg 51%
11:00 +28°C° 0 mm 2 m/s 720 mmHg 49%
12:00 +29°C° 0 mm 2 m/s 720 mmHg 47%
13:00 +29°C° 0 mm 2 m/s 720 mmHg 44%
14:00 +29°C° 0 mm 2 m/s 719 mmHg 46%
15:00 +29°C° 0 mm 2 m/s 719 mmHg 48%
16:00 +29°C° 0 mm 2 m/s 719 mmHg 49%
17:00 +27°C° 0 mm 2 m/s 719 mmHg 60%
18:00 +25°C° 0 mm 2 m/s 718 mmHg 70%
19:00 +23°C° 0 mm 2 m/s 718 mmHg 81%
20:00 +22°C° 0 mm 1 m/s 718 mmHg 84%
21:00 +21°C° 0 mm 1 m/s 718 mmHg 87%
22:00 +20°C° 0 mm 1 m/s 718 mmHg 91%
23:00 +19°C° 0 mm 1 m/s 718 mmHg 91%

Demain, 21 Juin, Lundi

Heure Température Précipitation Vent Pression Humidité
00:00 +19°C° 0 mm 1 m/s 717 mmHg 91%
01:00 +18°C° 0 mm 1 m/s 717 mmHg 91%
02:00 +18°C° 0 mm 1 m/s 717 mmHg 90%
03:00 +18°C° 0 mm 1 m/s 717 mmHg 90%
04:00 +18°C° 0 mm 1 m/s 716 mmHg 89%
05:00 +20°C° 0 mm 1 m/s 716 mmHg 82%
06:00 +22°C° 0 mm 1 m/s 717 mmHg 74%
07:00 +24°C° 0 mm 1 m/s 717 mmHg 67%
08:00 +26°C° 0 mm 1 m/s 717 mmHg 61%
09:00 +28°C° 0 mm 1 m/s 717 mmHg 55%
10:00 +29°C° 0 mm 1 m/s 717 mmHg 49%
11:00 +30°C° 0 mm 1 m/s 717 mmHg 48%
12:00 +30°C° 0 mm 2 m/s 717 mmHg 47%
13:00 +31°C° 0 mm 2 m/s 716 mmHg 47%
14:00 +30°C° 0.1 mm 2 m/s 716 mmHg 49%
15:00 +30°C° 0.1 mm 2 m/s 716 mmHg 52%
16:00 +30°C° 0.1 mm 2 m/s 716 mmHg 54%
17:00 +28°C° 0.1 mm 2 m/s 716 mmHg 61%
18:00 +26°C° 0.1 mm 2 m/s 716 mmHg 67%
19:00 +25°C° 0.1 mm 1 m/s 716 mmHg 74%
20:00 +24°C° 1.1 mm 2 m/s 716 mmHg 79%
21:00 +21°C° 1.1 mm 2 m/s 716 mmHg 84%
22:00 +20°C° 1.1 mm 3 m/s 717 mmHg 90%
23:00 +19°C° 0.7 mm 2 m/s 717 mmHg 92%

Après-demain, 22 Juin, Mardi

Heure Température Précipitation Vent Pression Humidité
00:00 +19°C° 0.7 mm 2 m/s 716 mmHg 93%
01:00 +19°C° 0.7 mm 1 m/s 716 mmHg 95%
02:00 +19°C° 0.9 mm 1 m/s 716 mmHg 96%
03:00 +19°C° 0.9 mm 1 m/s 717 mmHg 96%
04:00 +19°C° 0.9 mm 1 m/s 717 mmHg 97%
05:00 +20°C° 0 mm 1 m/s 717 mmHg 93%
06:00 +21°C° 0 mm 1 m/s 717 mmHg 90%
07:00 +22°C° 0 mm 1 m/s 718 mmHg 87%
08:00 +23°C° 0.1 mm 1 m/s 718 mmHg 81%
09:00 +25°C° 0.1 mm 1 m/s 718 mmHg 75%
10:00 +26°C° 0.1 mm 1 m/s 719 mmHg 68%
11:00 +27°C° 0.3 mm 1 m/s 719 mmHg 67%
12:00 +27°C° 0.3 mm 1 m/s 719 mmHg 66%
13:00 +28°C° 0.3 mm 1 m/s 719 mmHg 65%
14:00 +28°C° 0.7 mm 1 m/s 719 mmHg 67%
15:00 +28°C° 0.7 mm 1 m/s 719 mmHg 69%
16:00 +27°C° 0.7 mm 1 m/s 719 mmHg 71%
17:00 +26°C° 1 mm 1 m/s 719 mmHg 76%
18:00 +25°C° 1 mm 1 m/s 719 mmHg 80%
19:00 +24°C° 1 mm 1 m/s 719 mmHg 84%
20:00 +23°C° 0.2 mm 1 m/s 719 mmHg 87%
21:00 +22°C° 0.2 mm 1 m/s 719 mmHg 89%
22:00 +21°C° 0.2 mm 1 m/s 719 mmHg 91%
23:00 +21°C° 0 mm 1 m/s 719 mmHg 92%

23 Juin, Mercredi

Heure Température Précipitation Vent Pression Humidité
00:00 +20°C° 0 mm 1 m/s 719 mmHg 92%
01:00 +20°C° 0 mm 1 m/s 719 mmHg 93%
02:00 +20°C° 0 mm 1 m/s 719 mmHg 93%
03:00 +19°C° 0 mm 1 m/s 719 mmHg 93%
04:00 +19°C° 0 mm 1 m/s 719 mmHg 93%
05:00 +21°C° 0 mm 1 m/s 719 mmHg 88%
06:00 +23°C° 0 mm 1 m/s 719 mmHg 83%
07:00 +24°C° 0 mm 1 m/s 719 mmHg 78%
08:00 +26°C° 0.1 mm 1 m/s 720 mmHg 71%
09:00 +28°C° 0.1 mm 1 m/s 720 mmHg 65%
10:00 +29°C° 0.1 mm 1 m/s 720 mmHg 58%
11:00 +29°C° 0.4 mm 2 m/s 720 mmHg 60%
12:00 +29°C° 0.4 mm 2 m/s 720 mmHg 63%
13:00 +29°C° 0.4 mm 3 m/s 721 mmHg 65%
14:00 +28°C° 1 mm 3 m/s 721 mmHg 69%
15:00 +28°C° 1 mm 3 m/s 721 mmHg 74%
16:00 +27°C° 1 mm 2 m/s 722 mmHg 78%
17:00 +26°C° 0.3 mm 2 m/s 722 mmHg 80%
18:00 +25°C° 0.3 mm 2 m/s 722 mmHg 82%
19:00 +24°C° 0.3 mm 1 m/s 722 mmHg 84%
20:00 +22°C° 0 mm 1 m/s 722 mmHg 87%
21:00 +21°C° 0 mm 1 m/s 723 mmHg 89%
22:00 +20°C° 0 mm 1 m/s 723 mmHg 92%
23:00 +19°C° 0 mm 1 m/s 723 mmHg 93%

24 Juin, Jeudi

Heure Température Précipitation Vent Pression Humidité
00:00 +17°C° 0 mm 0 m/s 723 mmHg 94%
01:00 +16°C° 0 mm 0 m/s 723 mmHg 95%
02:00 +16°C° 0 mm 0 m/s 722 mmHg 96%
03:00 +16°C° 0 mm 0 m/s 722 mmHg 96%
04:00 +15°C° 0 mm 0 m/s 722 mmHg 96%
05:00 +19°C° 0 mm 1 m/s 722 mmHg 94%
06:00 +20°C° 0 mm 1 m/s 723 mmHg 91%
07:00 +21°C° 0 mm 1 m/s 723 mmHg 89%
08:00 +22°C° 0 mm 1 m/s 723 mmHg 84%
09:00 +23°C° 0 mm 1 m/s 723 mmHg 79%
10:00 +25°C° 0 mm 1 m/s 723 mmHg 74%
11:00 +26°C° 0.1 mm 2 m/s 723 mmHg 69%
12:00 +28°C° 0.1 mm 2 m/s 723 mmHg 64%
13:00 +29°C° 0.1 mm 2 m/s 722 mmHg 59%
14:00 +30°C° 0 mm 2 m/s 722 mmHg 59%
15:00 +30°C° 0 mm 3 m/s 722 mmHg 59%
16:00 +30°C° 0 mm 3 m/s 721 mmHg 59%
17:00 +29°C° 0.2 mm 3 m/s 721 mmHg 68%
18:00 +27°C° 0.2 mm 2 m/s 720 mmHg 77%
19:00 +25°C° 0.2 mm 2 m/s 719 mmHg 86%
20:00 +24°C° 0.7 mm 2 m/s 719 mmHg 87%
21:00 +23°C° 0.7 mm 1 m/s 719 mmHg 89%
22:00 +22°C° 0.7 mm 1 m/s 719 mmHg 91%
23:00 +21°C° 2.8 mm 1 m/s 719 mmHg 93%

25 Juin, Vendredi

Heure Température Précipitation Vent Pression Humidité
00:00 +21°C° 2.8 mm 1 m/s 719 mmHg 95%
01:00 +18°C° 2.8 mm 0 m/s 719 mmHg 97%
02:00 +19°C° 0 mm 1 m/s 719 mmHg 97%
03:00 +18°C° 0 mm 2 m/s 720 mmHg 97%
04:00 +17°C° 0 mm 3 m/s 720 mmHg 97%
05:00 +17°C° 0.1 mm 2 m/s 720 mmHg 97%
06:00 +17°C° 0.1 mm 2 m/s 721 mmHg 96%
07:00 +17°C° 0.1 mm 2 m/s 722 mmHg 96%
08:00 +18°C° 0 mm 2 m/s 722 mmHg 91%
09:00 +19°C° 0 mm 2 m/s 722 mmHg 87%
10:00 +19°C° 0 mm 3 m/s 722 mmHg 83%
11:00 +19°C° 0 mm 2 m/s 723 mmHg 81%
12:00 +20°C° 0 mm 2 m/s 723 mmHg 79%
13:00 +20°C° 0 mm 2 m/s 723 mmHg 77%
14:00 +20°C° 0 mm 2 m/s 723 mmHg 74%
15:00 +21°C° 0 mm 2 m/s 723 mmHg 72%
16:00 +23°C° 0 mm 2 m/s 723 mmHg 69%
17:00 +21°C° 0 mm 2 m/s 723 mmHg 74%
18:00 +20°C° 0 mm 2 m/s 723 mmHg 78%
19:00 +19°C° 0 mm 2 m/s 722 mmHg 83%
20:00 +19°C° 0 mm 1 m/s 723 mmHg 84%
21:00 +18°C° 0 mm 1 m/s 723 mmHg 85%
22:00 +18°C° 0 mm 1 m/s 723 mmHg 87%
23:00 +16°C° 0 mm 1 m/s 723 mmHg 89%
Voir plus

Nous avons besoin de votre consentement

Meteoprog et ses fournisseurs de services peuvent stocker et accéder à des données personnelles telles que des cookies, des identifiants d'appareils ou d'autres technologies similaires sur votre appareil et traiter ces données pour personnaliser le contenu et les publicités, ainsi que pour fournir des fonctionnalités de médias sociaux et analyser le trafic.

  • Stocker et/ou accéder à des informations sur votre appareil

    Des cookies, des identifiants d'appareils ou d'autres informations peuvent être stockés ou accessibles sur votre appareil aux fins indiquées ci-dessus.

  • Annonces et contenus personnalisés, mesure des annonces et des contenus, connaissance de l'audience et développement de produits

    Les annonces et le contenu peuvent être personnalisés en fonction d'un profil. D'autres données peuvent être ajoutées pour mieux personnaliser les annonces et le contenu. Les performances des publicités et du contenu peuvent être mesurées. Il est possible d'obtenir des informations sur le public qui a vu les publicités et le contenu. Ces données peuvent être utilisées pour développer ou améliorer l'expérience de l'utilisateur, les systèmes et les logiciels.

En cliquant sur "J'accepte", vous autorisez l'utilisation de cookies, des identifiants d'appareils, des balises web ou d'autres technologies similaires. Vos paramètres peuvent être modifiés dans le navigateur de votre appareil.

Dans certains cas, des intérêts légitimes peuvent être invoqués plutôt qu'un consentement. Vous pouvez en savoir plus à ce sujet dans notre Politique de confidentialité et de cookies.